This is the latest recevied weather packets stored in our database for station/object DL9BGG-13. If no packets are shown the sender has not sent any weather packets the latest 1 day(s).
| Time | Temp. | Humidity | Pressure | Rain* | Wind** | Luminosity | Snow |
|---|---|---|---|---|---|---|---|
| 1778011402 | 10° C | 84% | 1056.2 hPa | 0 mm | 2.24 m/s, 22° | - | - |
| 1778011336 | 10° C | 83% | 1056.2 hPa | 0 mm | 3.58 m/s, 0° | - | - |
| 1778011270 | 10° C | 83% | 1056.1 hPa | 0 mm | 4.02 m/s, 67° | - | - |
| 1778011203 | 10° C | 83% | 1056.2 hPa | 0 mm | 2.68 m/s, 45° | - | - |
| 1778011129 | 10° C | 83% | 1056.2 hPa | 0 mm | 2.68 m/s, 22° | - | - |
| 1778011055 | 10° C | 83% | 1056.1 hPa | 0 mm | 0.89 m/s, 45° | - | - |
| 1778010981 | 10° C | 83% | 1056.2 hPa | 0 mm | 3.58 m/s, 45° | - | - |
| 1778010906 | 10° C | 83% | 1056.2 hPa | 0 mm | 3.58 m/s, 0° | - | - |
| 1778010827 | 10° C | 83% | 1056.2 hPa | 0 mm | 1.79 m/s, 67° | - | - |
| 1778010758 | 10° C | 83% | 1056.3 hPa | 0 mm | 1.79 m/s, 0° | - | - |
| 1778010678 | 10° C | 83% | 1056.3 hPa | 0 mm | 2.68 m/s, 45° | - | - |
| 1778010612 | 10° C | 82% | 1056.2 hPa | 0 mm | 1.34 m/s, 337° | - | - |
| 1778010482 | 10° C | 82% | 1056.3 hPa | 0 mm | 0.89 m/s, 22° | - | - |
| 1778010412 | 10° C | 82% | 1056.3 hPa | 0 mm | 2.68 m/s, 67° | - | - |
| 1778010346 | 10° C | 82% | 1056.3 hPa | 0 mm | 2.68 m/s, 67° | - | - |
| 1778010280 | 10° C | 82% | 1056.3 hPa | 0 mm | 2.24 m/s, 22° | - | - |
| 1778010207 | 10° C | 82% | 1056.3 hPa | 0 mm | 6.26 m/s, 45° | - | - |
| 1778010141 | 10° C | 82% | 1056.2 hPa | 0 mm | 5.36 m/s, 45° | - | - |
| 1778010067 | 10° C | 82% | 1056.3 hPa | 0 mm | 1.79 m/s, 22° | - | - |
| 1778010001 | 10° C | 82% | 1056.2 hPa | 0 mm | 3.13 m/s, 45° | - | - |
| 1778009930 | 10° C | 82% | 1056.3 hPa | 0 mm | 4.47 m/s, 45° | - | - |
| 1778009864 | 10° C | 82% | 1056.3 hPa | 0 mm | 3.58 m/s, 45° | - | - |
| 1778009783 | 10° C | 82% | 1056.3 hPa | 0 mm | 2.68 m/s, 22° | - | - |
| 1778009702 | 10° C | 82% | 1056.3 hPa | 0 mm | 4.02 m/s, 0° | - | - |
| 1778009613 | 10° C | 82% | 1056.2 hPa | 0 mm | 4.92 m/s, 45° | - | - |
* Rain latest hour (hover to see other rain measurements)
** Current wind speed in m/s (hover to see current wind gust speed)